Satellite-Ground Cal/Val Site Overpasses Predictions

Prediction of Satellite NPP Overpassing Cal/Val Site: Antarctic Dome C

Ground Cal/Val Site Location: Latitude: -75.10, Longitude: 123.35; Satellite-Ground Site NADIR distance within 100 km.

Table of predicted overpasses for the next 14.0 days since TLE Epoch: 10/17/2020
Interval Starting Time Ending Time Minimum Distance Time Minimum Distance (km)
1 10/17/2020 07:31:32 10/17/2020 07:32:01 10/17/2020 07:31:46 2.01
2 10/20/2020 14:54:57 10/20/2020 14:55:25 10/20/2020 14:55:11 18.95
3 10/21/2020 14:36:15 10/21/2020 14:36:29 10/21/2020 14:36:22 87.99
4 10/22/2020 07:37:46 10/22/2020 07:38:13 10/22/2020 07:38:00 37.76
5 10/23/2020 07:19:00 10/23/2020 07:19:20 10/23/2020 07:19:10 72.32
6 10/25/2020 15:01:14 10/25/2020 15:01:38 10/25/2020 15:01:26 56.08
7 10/26/2020 14:42:23 10/26/2020 14:42:48 10/26/2020 14:42:35 53.07
8 10/27/2020 07:44:04 10/27/2020 07:44:24 10/27/2020 07:44:14 72.96
9 10/28/2020 07:25:11 10/28/2020 07:25:38 10/28/2020 07:25:25 35.04
